Date String (YYYY-MM-DD hh:mm:ss) UTC,Instrument flags,absolute air pressure of the measurement (hPa),sample flow rate (lpm),inlet stack bypass flow (lpm),air temperature of the measurement (°C),ambient temperature measured by the external sensor (°C),aerosol sample conditioner tube jacket temperature (°C),OPC LED temperature (°C),internal box temperature (°C),relative humidity of the measurement (%),span deviation,mass concentration of particles derived from Lorenz-Mie calculation of OPC scattering (μg/m³),mass concentration of particles derived from Lorenz-Mie calculation of OPC scattering (μg/m³),mass concentration of particles derived from Lorenz-Mie calculation of OPC scattering (μg/m³)
DateTimeUTC,F1_M11,P_M11,Q1_M11,Q2_M11,T1_M11,T2_M11,T3_M11,T4_M11,T5_M11,U1_M11,ZSPAN_M11,X0_M11,X2_M11,X1_M11
2024-01-02 05:00:00,SystemResetWarning,0832.0,5.01,000.00,024.7,023.7,000.0,033.1,026.1,11.7,0000.0,0005.06,0001.21,0000.99
2024-01-02 05:01:00,SystemResetWarning,0832.0,5.01,000.00,024.7,023.7,000.0,033.1,026.1,11.7,0000.0,0005.26,0001.26,0001.00
2024-01-02 05:02:00,SystemResetWarning,0832.0,5.00,000.00,024.7,023.7,000.0,033.0,026.1,11.8,0000.0,0005.54,0001.31,0001.03
2024-01-02 05:03:00,SystemResetWarning,0832.1,4.99,000.00,024.7,023.7,000.0,033.0,026.1,11.8,0000.0,0005.41,0001.31,0001.04
2024-01-02 05:04:00,SystemResetWarning,0832.1,5.00,000.00,024.7,023.7,000.0,033.0,026.1,11.8,0000.0,0004.82,0001.30,0001.06
2024-01-02 05:05:00,SystemResetWarning,0832.1,5.00,000.00,024.7,023.8,000.0,033.0,026.1,11.8,0000.0,0004.53,0001.29,0001.07
2024-01-02 05:06:00,SystemResetWarning,0832.1,5.01,000.00,024.7,023.7,000.0,033.0,026.1,11.8,0000.0,0004.16,0001.29,0001.08
2024-01-02 05:07:00,SystemResetWarning,0832.1,5.00,000.00,024.7,023.7,000.0,033.0,026.1,11.8,0000.0,0004.20,0001.31,0001.09
2024-01-02 05:08:00,SystemResetWarning,0832.2,5.00,000.00,024.7,023.7,000.0,033.0,026.0,11.9,0000.0,0004.23,0001.33,0001.09
2024-01-02 05:09:00,SystemResetWarning,0832.2,5.00,000.00,024.7,023.7,000.0,033.0,026.0,11.9,0000.0,0004.36,0001.38,0001.11
2024-01-02 05:10:00,SystemResetWarning,0832.2,5.00,000.00,024.7,023.7,000.0,033.0,026.0,11.9,0000.0,0006.02,0001.50,0001.20
2024-01-02 05:11:00,SystemResetWarning,0832.2,5.01,000.00,024.7,023.7,000.0,033.0,026.0,11.9,0000.0,0005.30,0001.63,0001.32
2024-01-02 05:12:00,SystemResetWarning,0832.2,5.00,000.00,024.7,023.7,000.0,033.0,026.0,11.9,0000.0,0005.26,0001.73,0001.45
2024-01-02 05:13:00,SystemResetWarning,0832.2,5.00,000.00,024.7,023.7,000.0,033.0,026.0,11.9,0000.0,0005.35,0001.93,0001.59
2024-01-02 05:14:00,SystemResetWarning,0832.2,5.00,000.00,024.7,023.7,000.0,033.0,026.0,11.9,0000.0,0005.81,0002.12,0001.75
2024-01-02 05:15:00,SystemResetWarning,0832.2,5.00,000.00,024.7,023.7,000.0,033.0,026.0,11.9,0000.0,0007.26,0002.38,0001.93
2024-01-02 05:16:00,SystemResetWarning,0832.2,4.99,000.00,024.7,023.7,000.0,033.0,026.0,11.9,0000.0,0007.65,0002.66,0002.15
2024-01-02 05:17:00,SystemResetWarning,0832.2,4.99,000.00,024.7,023.7,000.0,033.0,026.0,11.9,0000.0,0008.00,0002.97,0002.43
2024-01-02 05:18:00,SystemResetWarning,0832.2,5.00,000.00,024.7,023.6,000.0,033.0,026.0,11.9,0000.0,0008.92,0003.24,0002.77
2024-01-02 05:19:00,SystemResetWarning,0832.2,5.00,000.00,024.6,023.6,000.0,033.0,026.0,11.9,0000.0,0009.17,0003.46,0003.10
2024-01-02 05:20:00,SystemResetWarning,0832.3,5.01,000.00,024.6,023.6,000.0,033.0,026.0,11.9,0000.0,0009.45,0003.69,0003.33
2024-01-02 05:21:00,SystemResetWarning,0832.2,5.01,000.00,024.6,023.6,000.0,033.0,026.0,12.0,0000.0,0009.09,0003.88,0003.52
2024-01-02 05:22:00,SystemResetWarning,0832.3,5.00,000.00,024.6,023.6,000.0,033.0,026.0,12.0,0000.0,0008.70,0004.04,0003.65
2024-01-02 05:23:00,SystemResetWarning,0832.3,5.00,000.00,024.6,023.5,000.0,033.0,026.0,11.9,0000.0,0008.84,0004.24,0003.82
2024-01-02 05:24:00,SystemResetWarning,0832.3,4.99,000.00,024.6,023.5,000.0,032.9,026.0,11.9,0000.0,0009.19,0004.46,0004.04
2024-01-02 05:25:00,SystemResetWarning,0832.3,5.00,000.00,024.6,023.5,000.0,032.9,026.0,11.9,0000.0,0009.98,0004.72,0004.30
2024-01-02 05:26:00,SystemResetWarning,0832.3,5.01,000.00,024.6,023.4,000.0,032.9,025.9,11.9,0000.0,0009.72,0004.91,0004.48
2024-01-02 05:27:00,SystemResetWarning,0832.4,5.01,000.00,024.6,023.4,000.0,032.9,025.9,12.0,0000.0,0009.66,0005.07,0004.64
2024-01-02 05:28:00,SystemResetWarning,0832.4,5.00,000.00,024.6,023.5,000.0,032.9,026.0,11.9,0000.0,0009.91,0005.28,0004.82
2024-01-02 05:29:00,SystemResetWarning,0832.4,4.98,000.00,024.6,023.5,000.0,032.9,025.9,12.0,0000.0,0009.67,0005.51,0005.04
2024-01-02 05:30:00,SystemResetWarning,0832.4,5.00,000.00,024.6,023.5,000.0,032.9,026.0,12.0,0000.0,0010.05,0005.74,0005.24
2024-01-02 05:31:00,SystemResetWarning,0832.4,4.99,000.00,024.6,023.5,000.0,032.9,025.9,12.0,0000.0,0010.76,0005.94,0005.43
2024-01-02 05:32:00,SystemResetWarning,0832.4,5.00,000.00,024.6,023.5,000.0,032.9,025.9,12.0,0000.0,0011.28,0006.15,0005.61
2024-01-02 05:33:00,SystemResetWarning,0832.4,5.00,000.00,024.5,023.5,000.0,032.9,025.9,11.9,0000.0,0011.76,0006.34,0005.81
2024-01-02 05:34:00,SystemResetWarning,0832.5,5.00,000.00,024.5,023.5,000.0,032.9,025.9,11.9,0000.3,0012.23,0006.57,0006.01
2024-01-02 05:35:00,SystemResetWarning,0832.5,5.00,000.00,024.5,023.4,000.0,032.9,025.9,12.0,0004.5,0012.43,0006.72,0006.13
2024-01-02 05:36:00,SystemResetWarning,0832.4,5.00,000.00,024.5,023.4,000.0,032.9,025.9,11.9,0005.1,0012.08,0006.84,0006.24
2024-01-02 05:37:00,SystemResetWarning,0832.4,5.00,000.00,024.5,023.4,000.0,032.9,025.9,11.9,0005.4,0012.28,0007.04,0006.42
2024-01-02 05:38:00,SystemResetWarning,0832.4,5.00,000.00,024.5,023.4,000.0,032.9,025.9,11.9,0005.6,0012.80,0007.29,0006.65
2024-01-02 05:39:00,SystemResetWarning,0832.4,5.00,000.00,024.5,023.4,000.0,032.9,025.9,11.9,0005.5,0013.45,0007.46,0006.77
2024-01-02 05:40:00,SystemResetWarning,0832.4,5.00,000.00,024.5,023.4,000.0,032.9,025.9,11.9,0005.5,0014.24,0007.53,0006.84
2024-01-02 05:41:00,SystemResetWarning,0832.4,5.00,000.00,024.5,023.4,000.0,032.8,025.9,11.9,0005.1,0014.47,0007.64,0006.91
2024-01-02 05:42:00,SystemResetWarning,0832.5,5.00,000.00,024.5,023.4,000.0,032.8,025.9,11.9,0004.9,0014.16,0007.70,0006.98
2024-01-02 05:43:00,SystemResetWarning,0832.4,5.00,000.00,024.5,023.4,000.0,032.8,025.9,11.9,0004.7,0014.11,0007.79,0007.06
2024-01-02 05:44:00,SystemResetWarning,0832.5,4.99,000.00,024.5,023.5,000.0,032.8,025.9,11.8,0004.6,0015.00,0007.93,0007.17
2024-01-02 05:45:00,SystemResetWarning,0832.5,5.00,000.00,024.5,023.5,000.0,032.8,025.9,11.8,0004.6,0015.60,0008.06,0007.28
2024-01-02 05:46:00,SystemResetWarning,0832.5,5.00,000.00,024.5,023.5,000.0,032.8,025.9,11.8,0004.3,0016.11,0008.15,0007.37
2024-01-02 05:47:00,SystemResetWarning,0832.6,5.00,000.00,024.5,023.5,000.0,032.8,025.9,11.7,0004.3,0017.35,0008.21,0007.43
2024-01-02 05:48:00,SystemResetWarning,0832.5,5.00,000.00,024.5,023.5,000.0,032.8,025.9,11.8,0004.1,0017.43,0008.25,0007.47
2024-01-02 05:49:00,SystemResetWarning,0832.5,5.00,000.00,024.5,023.5,000.0,032.8,025.9,11.8,0004.5,0017.40,0008.23,0007.48
2024-01-02 05:50:00,SystemResetWarning,0832.5,5.00,000.00,024.5,023.5,000.0,032.8,025.9,11.8,0004.9,0017.54,0008.22,0007.49
2024-01-02 05:51:00,SystemResetWarning,0832.5,5.00,000.00,024.5,023.5,000.0,032.8,025.9,11.7,0005.1,0016.64,0008.23,0007.50
2024-01-02 05:52:00,SystemResetWarning,0832.5,5.00,000.00,024.5,023.5,000.0,032.8,025.9,11.7,0005.3,0016.43,0008.19,0007.50
2024-01-02 05:53:00,SystemResetWarning,0832.5,5.01,000.00,024.5,023.5,000.0,032.8,025.9,11.7,0005.4,0016.40,0008.15,0007.47
2024-01-02 05:54:00,SystemResetWarning,0832.6,5.00,000.00,024.5,023.5,000.0,032.8,025.9,11.7,0005.5,0016.35,0008.11,0007.40
2024-01-02 05:55:00,SystemResetWarning,0832.7,5.00,000.00,024.5,023.5,000.0,032.8,025.9,11.7,0005.4,0015.44,0007.96,0007.30
2024-01-02 05:56:00,SystemResetWarning,0832.7,5.00,000.00,024.5,023.5,000.0,032.8,025.9,11.7,0005.4,0014.75,0007.82,0007.17
2024-01-02 05:57:00,SystemResetWarning,0832.6,5.00,000.00,024.4,023.5,000.0,032.8,025.9,11.7,0005.5,0014.50,0007.64,0007.04
2024-01-02 05:58:00,SystemResetWarning,0832.6,5.00,000.00,024.4,023.5,000.0,032.8,025.9,11.8,0005.5,0013.12,0007.49,0006.90
2024-01-02 05:59:00,SystemResetWarning,0832.6,5.00,000.00,024.4,023.5,000.0,032.8,025.9,11.8,0005.3,0012.85,0007.33,0006.76
